STARLINK-5058, 55456

Orbit data source: Space-Track

STARLINK-5058, 55456 is a payload satellite owned by SpaceX/Seattle (US) in LEO that was launched on Thu, 02 Feb 2023 UTC via an FALCON 9 launch vehicle from the Air Force Eastern Test Range (AFETR). Payload-class satellites include a variety of spacecraft equipped with specific instruments for various scientific and technological missions. These include communications satellites like Starlink; space stations such as the ISS; scientific satellites like the Hubble; Earth observation satellites from companies like Planet Labs, Umbra, and HawkEye 360; GPS; miniature CubeSats for education and research; and military/defense satellites.

Loading next visibility...
Identifier
55456, 2023-015H
Orbit
LEO
Country
Flag of USUS
Related business
Manufacturer
SpaceX/Seattle
Mission
Operational Commercial Communications
Bus & Motor
STARLINK, Unknown motor
Mass
305 kg wet, ~290 kg dry
Launch date (UTC)
2023-02-02 (3 years ago)
Launch vehicle
FALCON 9
Launch site
Air Force Eastern Test Range (AFETR)
Object type
Payload
Rocket body
Debris
Shape & HBR
Box + 1 Pan, 10.1 m
Radar Cross Section
13.562 m², Large (>1 m²)

Expand to show TLE details & history
Last TLE update: 12 hours ago

TLE from 12 hours ago
0 STARLINK-5058
1 55456U 23015H   25288.64961988  .00001373  00000-0  11667-3 0  9990
2 55456  43.0053  34.3167 0001129 275.0147  85.0567 15.02534719148938
Epoch: 2025-10-15T15:35Z
TLE epoch observation values (Epoch: 2025-10-15T15:35:27.157Z)
Latitude
0.00001°
Longitude
136.0329°
Altitude
558.795 km
Speed
7.584 km/s
True Right ascension
02h 17m 16s
True Declination
0° 00' 00"
Sunlit
Object was in full shadow at epoch
Visualization orbit readout
Latitude
Unknown
Longitude
Unknown
Altitude
Unknown
Speed
Unknown
Apparent Right ascension
Unknown
Apparent Declination
Unknown
Sunlit
N/A
Visualization observer readout
Local Sidereal Time
22:02:02
Azimuth
Unknown
Elevation
Unknown
Doppler factor
Unknown
Orbital elements
Apogee altitude
561.79 km
Perigee altitude
560.223 km
Semi-major axis
6,939.144 km
Eccentricity
0.00011
Inclination
43.0053°
RAAN
34.3167°
Arg. of periapsis
275.0147°
True anomaly
85.06959°
Mean anomaly
85.0567°
Eccentric anomaly
85.06314°
Mean motion
3.75478 °/min
Orbital period
95.88 mins
BSTAR
0.00011667
Loading maneuver chart data...
Computing Atmospheric mass density...
Loading historical data...
Loading historical data...
Loading historical data...
Loading historical data...
Loading historical data...
Loading historical data...
Loading historical data...

Documentation

Showing up to 5 results
|